Location: Martley
(52.2333°N, 2.3667°W)
Time: 19:39:01
(UTC+00:00)

USA 81 - Pass Details

Date: 11 December 2019
Orbit: 785 x 788 km, 85.0° (Epoch: 06 January)

Event Time Altitude Azimuth Distance (km) Brightness Sun altitude
Rises 07:00:16 0° 351° (N) 3,291 6.9 -9.7°
Reaches altitude 10° 07:02:39 10° 348° (NNW) 2,358 6.2 -9.3°
Maximum altitude 07:07:52 65° 268° (W) 868 4.1 -8.6°
Drops below altitude 10° 07:13:04 10° 188° (S) 2,341 6.8 -7.9°
Sets 07:15:26 0° 185° (S) 3,266 7.6 -7.6°
